Location: Unspecified
(22.6800°N, 112.2000°E)
Time: 17:56:49
(UTC+08:00)

Courier 1B Rocket - All Passes

Search period start: 31 July 2021 00:00
Search period end: 10 August 2021 00:00
Orbit: 920 x 1202 km, 28.2° (Epoch: 30 July)

Date Brightness Start Highest point End Pass type
(mag) Time Alt. Az. Time Alt. Az. Time Alt. Az.
31 Jul - 01:16:27 10° WSW 01:23:23 68° SSE 01:29:50 10° ENE visible
31 Jul - 03:10:26 10° W 03:17:00 61° N 03:23:14 10° ENE visible
31 Jul - 05:04:42 10° WNW 05:10:54 52° N 05:16:59 10° E visible
31 Jul - 06:58:21 10° WNW 07:04:37 86° NNE 07:10:57 10° ESE daylight
31 Jul - 08:52:14 10° W 08:57:52 36° SSW 09:03:43 10° SE daylight
31 Jul - 22:24:34 10° S 22:28:54 16° SSE 22:33:04 10° ESE night (unlit)
01 Aug - 00:15:23 10° SW 00:22:17 50° SSE 00:28:43 10° E night (unlit)
01 Aug - 02:08:58 10° W 02:15:50 73° NNW 02:22:15 10° ENE visible
01 Aug - 04:03:22 10° WNW 04:09:42 51° N 04:15:47 10° ENE visible
01 Aug - 05:57:16 10° WNW 06:03:33 69° NNE 06:09:47 10° E daylight
01 Aug - 07:50:56 10° W 07:56:56 51° SSW 08:03:04 10° SE daylight
01 Aug - 09:46:34 10° WSW 09:50:02 15° SSW 09:53:36 10° S daylight
01 Aug - 21:26:47 10° SSE 21:27:43 10° SSE 21:28:38 10° SE night (unlit)
01 Aug - 23:14:32 10° SW 23:21:11 36° SSE 23:27:25 10° E night (unlit)
02 Aug - 01:07:32 10° WSW 01:14:40 90° S 01:21:17 10° ENE visible
02 Aug - 03:01:54 10° W 03:08:29 54° N 03:14:42 10° ENE visible
02 Aug - 04:56:06 10° WNW 05:02:26 59° N 05:08:34 10° E visible
02 Aug - 06:49:44 10° WNW 06:55:58 71° SSW 07:02:13 10° ESE daylight
02 Aug - 08:44:18 10° W 08:49:05 23° SSW 08:53:59 10° SSE daylight
02 Aug - 22:14:02 10° SSW 22:20:03 26° SSE 22:25:46 10° E night (unlit)
03 Aug - 00:06:13 10° WSW 00:13:31 70° SSE 00:20:15 10° ENE night (unlit)
03 Aug - 02:00:21 10° W 02:07:14 61° N 02:13:40 10° ENE visible
03 Aug - 03:54:47 10° WNW 04:01:14 53° N 04:07:22 10° E visible
03 Aug - 05:48:35 10° WNW 05:54:59 87° NNE 06:01:14 10° ESE daylight
03 Aug - 07:42:37 10° W 07:48:11 34° SSW 07:53:48 10° SE daylight
03 Aug - 21:14:03 10° S 21:18:53 18° SSE 21:23:33 10° ESE visible
03 Aug - 23:05:05 10° SW 23:12:20 53° SSE 23:19:06 10° E night (unlit)
04 Aug - 00:58:47 10° W 01:06:00 73° NNW 01:12:40 10° ENE visible
04 Aug - 02:53:20 10° WNW 02:59:59 52° N 03:06:14 10° ENE visible
04 Aug - 04:47:24 10° WNW 04:53:54 70° NNE 05:00:08 10° E visible
04 Aug - 06:41:13 10° W 06:47:16 50° SSW 06:53:16 10° SE daylight
04 Aug - 08:37:11 10° WSW 08:40:18 14° SSW 08:43:26 10° S daylight
04 Aug - 20:15:28 10° SSE 20:17:40 11° SSE 20:19:50 10° SE visible
04 Aug - 22:04:11 10° SW 22:11:10 38° SSE 22:17:45 10° E visible
04 Aug - 23:57:18 10° WSW 00:04:45 89° NNW 00:11:41 10° ENE night (unlit)
05 Aug - 01:51:46 10° W 01:58:42 55° N 02:05:09 10° ENE visible
05 Aug - 03:46:07 10° WNW 03:52:45 60° N 03:59:00 10° E visible
05 Aug - 05:39:56 10° WNW 05:46:20 70° SSW 05:52:31 10° ESE visible
05 Aug - 07:34:42 10° W 07:39:23 22° SSW 07:44:04 10° SSE daylight
05 Aug - 21:03:38 10° SSW 21:09:58 27° SSE 21:16:04 10° E visible
05 Aug - 22:55:55 10° WSW 23:03:31 72° SSE 23:10:36 10° ENE visible
06 Aug - 00:50:09 10° W 00:57:23 62° N 01:04:05 10° ENE night (unlit)
06 Aug - 02:44:42 10° WNW 02:51:30 55° N 02:57:50 10° E visible
06 Aug - 04:38:40 10° WNW 04:45:18 89° NNE 04:51:37 10° ESE visible
06 Aug - 06:32:54 10° W 06:38:30 33° SSW 06:44:01 10° SE daylight
06 Aug - 20:03:37 10° S 20:08:46 19° SSE 20:13:49 10° ESE visible
06 Aug - 21:54:45 10° SW 22:02:16 55° SSE 22:09:23 10° E visible
06 Aug - 23:48:32 10° W 23:56:03 73° NNW 00:03:03 10° ENE night (unlit)
07 Aug - 01:43:10 10° WNW 01:50:11 54° N 01:56:41 10° ENE visible
07 Aug - 03:37:23 10° WNW 03:44:12 72° NNE 03:50:34 10° E visible
07 Aug - 05:31:22 10° W 05:37:36 49° SSW 05:43:35 10° SE visible
07 Aug - 07:27:39 10° WSW 07:30:34 13° SSW 07:33:29 10° S daylight
07 Aug - 19:04:50 10° SSE 19:07:34 12° SSE 19:10:16 10° SE daylight
07 Aug - 20:53:51 10° SW 21:01:03 40° SSE 21:07:58 10° E visible
07 Aug - 22:47:00 10° WSW 22:54:44 88° NNW 23:01:59 10° ENE visible
08 Aug - 00:41:32 10° W 00:48:48 56° N 00:55:34 10° ENE night (unlit)
08 Aug - 02:36:00 10° WNW 02:42:58 62° N 02:49:27 10° E visible
08 Aug - 04:29:58 10° WNW 04:36:38 69° SSW 04:42:55 10° ESE visible
08 Aug - 06:24:56 10° W 06:29:41 22° SSW 06:34:19 10° SSE daylight
08 Aug - 19:53:20 10° SSW 19:59:50 29° SSE 20:06:12 10° E visible
08 Aug - 21:45:37 10° WSW 21:53:25 74° SSE 22:00:50 10° ENE visible
08 Aug - 23:39:52 10° W 23:47:24 63° N 23:54:27 10° ENE visible
09 Aug - 01:34:30 10° WNW 01:41:39 56° N 01:48:17 10° E visible
09 Aug - 03:28:36 10° WNW 03:35:34 90° S 03:42:02 10° ESE visible
09 Aug - 05:23:00 10° W 05:28:47 33° SSW 05:34:22 10° SSE visible
09 Aug - 18:53:20 10° S 18:58:37 20° SSE 19:03:54 10° ESE daylight
09 Aug - 20:44:29 10° SW 20:52:06 56° SSE 20:59:32 10° E visible
09 Aug - 22:38:14 10° W 22:46:00 73° NNW 22:53:20 10° ENE visible
